Location: Wingville
(42.9917°N, 90.4915°W)
Time: 12:40:31
(UTC+00:00)

LO-87 - Pass Details

Date: 03 July 2022
Orbit: 451 x 466 km, 97.4° (Epoch: 08 August)

Event Time Altitude Azimuth Distance (km) Brightness Sun altitude
Exits shadow 06:45:26 11° 288° (WNW) 1,566 ? -23.4°
Drops below altitude 10° 06:45:45 10° 293° (WNW) 1,614 ? -23.4°
Sets 06:48:56 0° 326° (NW) 2,502 ? -23.3°
